Temp
18 18 19 19 22 22 22 23 23 23 23 23 22 24 25 25 26 26 21 20 21 20 16 16 16 15 15 15 16 15 15 15 14 14 13 13 13 12 12 12 13 13 13 13 13 13 13 13 13
17 18 19 20 21 22 23 23 23 23 23 22 22 22 24 26 22 20 19 20 20 18 16 16 15 15 15 16 16 15 15 15 14 14 13 12 12 12 12 12 13 13 13 13 13 13 13 12 13
17 18 20 21 22 22 23 23 24 22 22 22 23 22 23 24 20 21 20 21 19 18 16 16 16 15 15 16 16 15 15 15 14 14 13 13 12 12 12 12 12 13 13 13 13 13 13 13 13
16 18 18 20 21 22 22 23 22 22 23 22 22 24 22 21 20 19 21 20 20 16 16 18 16 15 15 16 15 15 15 15 14 12 13 13 12 12 12 12 12 13 13 13 13 13 13 13 13
16 18 20 20 21 23 22 22 21 22 22 23 22 24 24 20 21 21 21 20 17 16 16 18 15 15 15 15 15 15 15 15 14 13 13 13 13 13 12 12 13 13 13 13 13 13 13 13 13
18 19 19 20 21 21 21 21 21 22 22 22 23 23 23 20 20 21 21 20 19 16 15 15 15 15 15 15 15 15 15 15 14 13 12 13 13 13 13 13 13 13 13 13 13 13 13 13 13
18 19 20 21 21 21 21 21 21 22 22 23 21 24 23 21 20 20 20 20 19 16 17 16 15 15 15 15 15 15 15 15 15 13 12 13 13 13 13 13 13 13 13 13 13 13 13 13 13
17 19 19 19 20 20 21 20 20 21 22 20 20 24 24 19 19 19 19 19 18 18 17 16 15 14 14 15 15 15 15 15 15 14 13 13 13 13 13 13 13 13 13 13 13 13 12 12 12
14 18 18 19 19 20 19 20 19 18 20 20 20 20 19 19 19 18 17 18 18 18 18 17 15 14 14 14 15 14 14 14 15 15 14 14 12 13 13 13 13 13 12 12 12 12 12 12 12
16 17 19 20 20 19 19 19 19 19 20 20 20 19 18 19 18 17 17 17 17 18 18 17 15 14 14 14 14 14 13 14 14 14 14 13 13 13 13 13 13 12 12 12 12 12 12 12 12
15 17 19 17 17 17 17 17 17 19 20 20 21 20 18 18 17 17 18 18 18 17 16 18 18 15 14 14 13 13 13 13 12 13 14 14 14 13 12 12 12 12 12 12 12 12 12 12 12
14 15 15 16 15 15 16 17 17 17 19 19 17 17 17 18 18 18 18 18 18 17 17 18 18 18 17 14 14 14 13 13 13 13 13 13 12 13 12 12 12 12 12 12 12 12 12 12 12
14 15 14 14 13 14 14 15 16 16 17 17 17 16 17 18 18 18 18 18 18 17 18 19 18 18 18 17 14 14 13 13 13 12 13 12 12 12 12 12 12 12 12 12 12 11 11 11 12
13 13 13 13 13 13 14 15 15 15 16 16 16 17 17 17 18 18 18 18 18 18 17 17 19 18 18 17 16 14 13 13 13 12 13 13 12 12 12 12 12 12 12 12 12 11 11 12 12
12 12 14 14 14 14 13 14 15 15 15 16 16 17 17 17 18 18 18 18 18 18 18 17 18 17 17 16 14 14 13 13 13 12 12 13 13 12 12 12 12 12 12 12 11 12 11 11 11
12 13 13 15 14 14 13 15 17 16 16 16 16 16 17 17 17 18 18 18 18 17 18 18 19 18 17 15 14 14 13 13 13 12 13 13 13 13 12 12 12 12 11 11 11 11 11 11 11
12 13 13 14 14 15 14 15 16 14 15 15 16 16 16 16 16 16 17 17 17 17 18 19 19 19 18 15 14 14 13 13 14 14 13 13 13 13 12 12 12 11 11 11 11 11 11 11 10
14 12 13 13 14 13 14 14 15 15 15 15 15 16 16 15 15 15 16 16 17 17 18 18 19 19 18 15 13 13 13 13 14 14 13 13 13 12 12 12 11 11 11 11 11 11 10 10 10
11 11 12 13 13 12 13 14 15 15 14 14 15 15 15 16 16 15 15 16 16 17 18 18 19 19 18 15 14 14 15 14 14 14 13 13 12 12 12 11 11 11 11 11 10 10 10 9 9
10 10 10 12 13 11 12 12 13 14 14 14 15 15 16 16 16 16 15 16 16 16 17 18 19 19 18 15 15 13 14 15 14 13 13 12 12 11 11 11 11 11 10 10 10 10 9 9 8
10 9 9 9 11 11 11 12 16 17 16 15 14 14 14 15 15 15 16 16 16 15 16 18 18 18 17 16 12 13 14 13 13 13 12 11 11 11 11 11 11 11 10 10 9 9 8 7 7
10 12 10 10 9 9 10 12 15 16 16 16 16 15 15 15 15 14 15 15 16 15 17 17 18 18 17 16 16 16 15 14 13 12 12 11 10 10 11 11 11 10 10 10 9 8 8 7 6
9 10 9 9 9 8 10 7 14 14 14 15 17 17 17 16 15 14 14 14 15 15 16 17 17 16 16 17 16 14 13 12 13 12 12 10 10 10 10 10 10 10 10 9 8 8 7 6 5
9 9 9 9 8 8 10 9 13 16 17 16 16 16 16 16 15 14 14 14 14 14 16 16 16 16 16 16 15 13 13 13 13 11 11 10 9 10 10 10 10 9 9 8 8 7 6 6 5
8 6 8 8 7 10 13 12 13 15 15 16 17 17 15 15 15 14 14 13 13 13 15 15 15 15 15 14 13 13 13 13 13 13 11 11 10 10 10 9 9 9 8 7 7 6 5 5 4
7 8 9 9 11 12 12 10 14 16 16 15 15 15 14 13 14 14 14 13 13 13 15 14 14 14 14 13 13 13 12 12 12 12 11 11 11 10 9 9 8 8 7 7 6 5 4 4 3
7 6 9 8 10 9 11 13 15 16 15 15 15 14 13 13 12 12 13 13 13 12 14 14 13 13 13 12 12 13 12 11 12 10 11 11 10 9 9 8 8 7 6 6 5 4 4 3 2
8 9 6 6 7 9 12 13 13 14 15 15 14 14 13 12 12 11 12 12 12 11 14 13 11 12 12 11 11 12 12 11 11 11 11 10 9 9 8 8 7 6 5 5 4 4 3 2 2
6 6 6 8 8 9 11 13 16 14 15 15 14 13 11 11 11 10 11 11 10 10 10 11 10 10 11 11 11 11 11 10 10 9 9 9 9 8 7 7 6 5 4 4 3 3 2 2 1
10 9 8 6 7 7 7 10 15 14 13 13 13 12 11 9 9 9 9 9 9 8 8 9 9 10 11 11 11 10 10 9 9 8 8 8 8 7 6 6 5 4 4 3 2 2 2 1 1
Height
1521 1522 1522 1522 1523 1515 1511 1509 1506 1505 1504 1504 1506 1503 1499 1499 1495 1500 1500 1501 1503 1505 1508 1510 1513 1513 1514 1515 1516 1517 1518 1518 1518 1520 1522 1523 1523 1523 1524 1524 1522 1522 1522 1522 1523 1522 1522 1523 1523
1520 1521 1522 1521 1518 1514 1504 1502 1505 1504 1505 1505 1504 1503 1502 1496 1501 1501 1502 1502 1504 1506 1509 1512 1512 1514 1515 1516 1517 1516 1518 1518 1519 1521 1523 1524 1524 1523 1525 1524 1523 1522 1522 1522 1522 1523 1523 1523 1524
1519 1520 1522 1514 1510 1509 1504 1502 1500 1505 1505 1504 1503 1502 1500 1499 1501 1503 1502 1503 1504 1507 1509 1512 1512 1514 1516 1517 1518 1518 1517 1518 1520 1521 1523 1524 1525 1525 1525 1525 1524 1523 1523 1523 1522 1522 1522 1522 1522
1518 1521 1521 1514 1507 1502 1503 1501 1504 1504 1504 1504 1503 1499 1501 1499 1500 1501 1502 1502 1504 1508 1509 1509 1512 1514 1516 1517 1518 1518 1518 1518 1520 1520 1523 1524 1525 1526 1526 1526 1526 1525 1525 1524 1523 1523 1523 1523 1523
1516 1516 1510 1510 1502 1498 1503 1504 1505 1503 1504 1503 1502 1496 1499 1500 1500 1500 1502 1504 1507 1508 1510 1510 1513 1515 1516 1517 1518 1518 1518 1518 1520 1521 1523 1524 1525 1526 1526 1527 1527 1526 1526 1525 1525 1524 1524 1524 1524
1514 1511 1508 1505 1497 1499 1502 1502 1504 1502 1502 1503 1501 1499 1499 1500 1500 1500 1501 1504 1507 1508 1510 1511 1512 1515 1516 1516 1517 1518 1519 1519 1520 1522 1523 1524 1525 1525 1526 1527 1527 1527 1526 1526 1525 1525 1525 1525 1525
1508 1506 1499 1497 1495 1496 1500 1502 1502 1500 1499 1500 1501 1497 1499 1500 1499 1500 1501 1503 1505 1508 1509 1511 1513 1514 1516 1517 1517 1518 1518 1519 1520 1522 1523 1524 1524 1525 1526 1527 1527 1527 1527 1526 1526 1526 1526 1526 1525
1507 1504 1498 1498 1494 1496 1497 1500 1500 1500 1496 1501 1500 1495 1496 1500 1499 1500 1502 1503 1504 1506 1508 1510 1513 1514 1515 1516 1517 1518 1518 1519 1520 1521 1523 1524 1525 1525 1525 1526 1527 1526 1527 1526 1526 1526 1526 1525 1526
1507 1502 1494 1495 1494 1493 1498 1497 1499 1500 1498 1498 1499 1499 1499 1499 1499 1500 1501 1502 1503 1505 1506 1508 1511 1514 1515 1516 1516 1517 1518 1519 1520 1521 1522 1523 1525 1525 1525 1525 1526 1527 1527 1526 1526 1526 1525 1526 1525
1501 1498 1490 1489 1491 1493 1495 1496 1497 1498 1495 1495 1497 1498 1498 1497 1498 1500 1501 1502 1502 1503 1504 1506 1509 1512 1514 1514 1515 1516 1517 1518 1519 1520 1521 1522 1523 1525 1525 1525 1526 1526 1527 1526 1526 1526 1525 1525 1525
1499 1493 1490 1495 1495 1497 1497 1496 1498 1494 1492 1493 1494 1495 1496 1497 1497 1498 1499 1501 1502 1503 1503 1504 1506 1508 1511 1511 1513 1515 1516 1517 1519 1519 1519 1520 1522 1524 1524 1525 1526 1526 1526 1526 1526 1526 1524 1523 1523
1498 1495 1496 1494 1495 1497 1496 1496 1494 1492 1489 1491 1494 1494 1493 1494 1495 1495 1495 1498 1499 1499 1500 1501 1502 1504 1506 1508 1510 1513 1514 1515 1516 1516 1518 1519 1521 1522 1525 1526 1524 1525 1525 1525 1525 1524 1522 1521 1520
1497 1494 1496 1494 1496 1496 1495 1492 1492 1489 1488 1490 1490 1490 1490 1490 1491 1492 1491 1493 1495 1496 1497 1498 1499 1500 1502 1503 1505 1509 1512 1512 1514 1514 1515 1517 1519 1520 1521 1523 1523 1524 1524 1524 1524 1523 1521 1519 1517
1496 1495 1493 1493 1493 1493 1492 1486 1490 1480 1484 1484 1485 1484 1484 1485 1486 1487 1488 1488 1490 1492 1494 1495 1495 1497 1498 1499 1501 1504 1507 1509 1510 1512 1513 1515 1517 1517 1520 1521 1522 1522 1523 1522 1522 1521 1518 1517 1515
1496 1493 1488 1486 1486 1487 1489 1480 1476 1474 1479 1477 1477 1477 1477 1478 1481 1480 1482 1484 1486 1488 1490 1491 1492 1493 1494 1496 1498 1500 1502 1504 1507 1509 1511 1513 1514 1516 1517 1519 1520 1520 1521 1521 1520 1518 1516 1514 1512
1492 1491 1484 1480 1484 1483 1486 1469 1466 1470 1469 1470 1470 1471 1471 1471 1472 1474 1476 1478 1480 1481 1483 1484 1486 1488 1489 1491 1494 1497 1497 1500 1504 1506 1508 1510 1512 1514 1515 1517 1517 1519 1519 1518 1517 1516 1513 1512 1510
1489 1481 1483 1481 1480 1479 1479 1466 1465 1467 1467 1466 1465 1466 1466 1465 1465 1466 1468 1470 1472 1474 1477 1478 1481 1483 1484 1486 1490 1493 1494 1496 1498 1501 1504 1507 1509 1511 1513 1514 1515 1517 1517 1515 1514 1514 1512 1510 1507
1477 1486 1483 1481 1478 1479 1473 1465 1465 1466 1464 1462 1461 1460 1459 1459 1458 1460 1461 1463 1464 1466 1469 1472 1474 1476 1478 1480 1484 1487 1489 1490 1493 1496 1501 1503 1505 1508 1509 1511 1513 1514 1514 1513 1512 1511 1510 1508 1505
1486 1485 1483 1479 1480 1479 1468 1458 1457 1458 1456 1455 1453 1452 1451 1450 1452 1453 1454 1455 1456 1457 1461 1465 1467 1469 1471 1473 1475 1478 1479 1484 1488 1492 1496 1500 1503 1505 1506 1508 1510 1511 1512 1511 1510 1509 1508 1505 1503
1488 1489 1486 1480 1478 1480 1468 1444 1452 1449 1440 1442 1441 1440 1440 1441 1443 1443 1445 1447 1448 1450 1453 1457 1460 1461 1463 1466 1469 1473 1474 1479 1483 1488 1492 1495 1499 1502 1504 1505 1507 1509 1510 1509 1508 1507 1505 1503 1502
1484 1486 1486 1486 1481 1478 1470 1436 1424 1423 1426 1428 1430 1431 1430 1430 1432 1433 1434 1436 1439 1441 1444 1448 1452 1454 1456 1459 1464 1465 1469 1473 1478 1483 1487 1492 1495 1497 1501 1502 1504 1506 1507 1507 1506 1504 1503 1502 1500
1479 1476 1480 1482 1484 1479 1473 1444 1423 1420 1420 1421 1422 1421 1421 1422 1422 1423 1424 1426 1429 1432 1436 1439 1443 1446 1448 1450 1455 1459 1463 1467 1473 1479 1484 1488 1491 1494 1498 1500 1502 1503 1504 1504 1503 1502 1501 1500 1499
1479 1480 1480 1479 1479 1479 1467 1481 1416 1422 1420 1416 1414 1413 1413 1413 1413 1413 1414 1415 1418 1423 1426 1431 1434 1439 1442 1445 1449 1455 1460 1464 1468 1475 1480 1485 1489 1493 1495 1498 1500 1500 1501 1500 1500 1499 1498 1498 1497
1481 1481 1481 1479 1482 1470 1452 1463 1409 1405 1401 1404 1408 1409 1408 1408 1408 1406 1406 1408 1409 1413 1417 1422 1427 1431 1436 1439 1443 1448 1453 1459 1464 1470 1476 1481 1486 1490 1493 1495 1497 1498 1498 1498 1497 1496 1495 1494 1493
1481 1486 1473 1474 1472 1449 1432 1438 1409 1402 1403 1404 1402 1402 1404 1402 1402 1401 1399 1401 1403 1405 1408 1415 1420 1425 1429 1434 1439 1443 1451 1457 1462 1466 1472 1478 1483 1487 1490 1492 1494 1495 1495 1495 1494 1493 1492 1491 1490
1474 1476 1466 1455 1440 1430 1433 1426 1399 1392 1397 1398 1402 1401 1399 1396 1392 1391 1392 1393 1395 1396 1402 1410 1414 1419 1424 1428 1434 1441 1447 1454 1460 1466 1470 1475 1480 1484 1488 1489 1491 1493 1493 1492 1491 1490 1489 1488 1486
1471 1471 1463 1464 1450 1448 1425 1401 1391 1389 1389 1394 1396 1398 1397 1393 1387 1383 1384 1386 1389 1391 1394 1402 1411 1415 1420 1424 1431 1437 1444 1451 1458 1462 1469 1472 1476 1481 1485 1487 1489 1490 1489 1489 1488 1487 1485 1484 1482
1461 1460 1467 1466 1451 1432 1405 1401 1391 1382 1385 1383 1389 1390 1393 1390 1383 1379 1378 1379 1383 1387 1390 1397 1407 1411 1416 1420 1427 1435 1442 1450 1456 1461 1465 1470 1474 1479 1482 1484 1486 1487 1486 1486 1485 1483 1482 1480 1477
1460 1460 1459 1451 1441 1423 1406 1387 1375 1381 1379 1382 1386 1387 1389 1388 1381 1377 1376 1377 1379 1384 1386 1393 1402 1409 1413 1418 1425 1433 1440 1447 1454 1459 1464 1468 1473 1476 1479 1482 1483 1484 1483 1483 1481 1479 1477 1475 1473
1438 1440 1445 1446 1431 1426 1420 1389 1378 1382 1385 1387 1386 1387 1385 1385 1380 1376 1375 1377 1379 1381 1384 1391 1399 1405 1411 1417 1424 1432 1439 1446 1453 1457 1463 1467 1471 1474 1477 1478 1480 1480 1480 1479 1478 1476 1473 1471 1469
Wind_Speed
8 7 7 4 6 5 7 4 4 3 4 1 5 6 4 6 3 1 3 14 14 16 18 18 15 13 12 9 8 5 2 3 9 12 9 8 8 7 3 1 2 2 3 10 10 9 5 5 6
6 5 3 3 6 8 7 6 7 1 5 8 6 8 8 2 1 2 10 11 16 17 17 17 19 15 11 7 7 5 3 6 12 11 8 5 3 10 8 7 7 6 5 4 6 8 6 10 7
5 2 5 4 8 12 6 7 6 2 4 3 3 4 3 1 1 5 5 11 17 18 17 18 19 16 12 8 6 4 4 7 14 12 7 11 12 10 8 8 8 8 7 7 7 6 4 3 3
4 3 3 9 14 10 9 2 3 3 2 1 3 5 2 3 3 5 7 13 18 17 17 17 18 15 12 9 7 4 5 8 16 15 12 10 7 5 5 5 6 6 6 6 7 6 5 4 4
7 5 9 12 18 13 9 7 8 6 5 4 4 1 1 1 4 6 7 9 15 17 16 16 16 14 11 9 7 5 4 7 10 12 12 10 5 3 3 0 3 3 4 4 4 5 5 5 5
9 8 8 15 17 10 11 12 11 11 7 7 5 5 0 2 3 6 9 11 14 16 16 15 16 15 11 8 7 5 4 6 10 13 15 11 8 5 5 4 0 0 2 2 4 5 6 6 5
14 10 16 17 14 14 12 8 13 12 10 8 3 5 2 2 3 8 13 14 15 15 14 14 15 16 12 9 8 6 5 5 10 13 13 12 10 5 7 5 3 2 2 3 4 5 3 2 3
10 7 15 13 14 18 6 8 6 9 6 3 3 5 4 2 6 9 12 13 14 16 14 14 15 14 13 11 9 6 5 5 8 12 12 11 10 7 7 5 5 3 3 3 3 1 3 4 6
6 8 12 20 16 11 5 9 9 4 7 3 4 3 1 4 8 10 12 13 13 14 15 15 15 14 13 12 11 9 7 7 7 10 11 11 9 10 7 7 5 4 3 2 1 3 4 8 9
12 11 16 10 12 7 9 6 4 6 10 12 8 3 2 3 6 11 12 13 14 15 16 15 15 15 15 13 12 11 10 9 9 8 10 10 11 10 10 8 6 4 3 2 3 4 5 8 10
10 14 11 7 10 6 11 11 11 12 13 15 14 7 4 2 2 10 13 13 12 13 14 15 16 15 16 15 14 12 12 11 10 10 10 11 12 11 8 6 4 3 3 4 4 6 8 10 13
9 14 13 7 9 7 12 11 14 18 23 12 10 11 12 11 10 8 11 13 13 14 15 14 15 15 16 15 15 14 13 13 12 11 11 11 10 11 7 6 7 5 4 5 6 10 11 14 15
12 9 8 10 10 13 15 21 22 23 25 24 23 21 20 19 18 13 11 12 14 15 15 16 16 16 16 17 16 16 15 15 13 13 14 12 11 10 10 8 5 5 6 6 9 13 14 14 15
2 6 10 10 14 14 17 24 21 29 27 28 29 31 30 27 25 20 16 13 15 16 16 16 17 18 19 19 18 17 17 15 14 14 16 14 12 10 8 7 8 7 7 8 11 15 13 15 16
6 10 12 15 15 14 12 19 20 34 28 31 28 28 27 29 28 28 24 19 16 16 16 18 19 20 21 22 21 19 19 18 16 15 16 15 12 11 10 9 8 8 8 10 13 12 13 16 17
4 5 5 4 3 6 9 16 6 13 17 23 24 27 30 30 31 32 30 25 21 17 18 19 19 19 22 22 22 21 21 19 17 17 17 15 12 11 11 9 8 9 10 10 10 12 14 15 15
8 8 9 10 8 7 12 12 6 3 7 13 16 18 19 22 25 28 30 28 26 23 20 24 23 22 22 22 22 23 22 22 23 20 18 15 15 15 13 9 8 11 9 7 9 12 13 13 12
6 10 10 11 2 8 16 21 19 24 27 25 25 25 25 24 23 19 22 25 27 29 27 27 27 25 25 21 23 24 23 27 26 22 21 19 20 18 14 11 9 10 7 6 8 10 12 12 13
5 8 11 10 9 17 19 23 23 26 31 31 32 32 32 33 29 25 23 21 20 27 31 28 27 26 26 24 30 35 35 33 30 26 24 23 21 18 14 12 10 9 6 5 6 9 11 13 14
13 15 17 16 14 13 19 32 25 27 33 34 34 35 35 35 33 32 29 27 25 23 27 30 27 27 28 28 27 32 38 35 31 29 27 27 25 19 17 13 12 8 5 4 6 9 12 14 15
16 17 15 17 17 19 21 26 12 5 13 21 28 33 34 33 33 33 33 32 28 26 26 30 30 28 27 26 27 37 38 38 34 32 31 29 26 21 17 15 12 8 5 5 6 9 11 12 14
15 12 14 13 11 6 2 11 16 14 14 11 14 18 22 24 28 32 35 32 32 29 31 30 32 29 29 31 33 37 40 39 36 34 33 31 25 21 18 16 12 9 6 6 7 10 11 12 11
7 5 7 9 12 13 17 7 11 5 11 10 14 19 21 20 22 27 29 33 30 31 34 33 32 30 31 28 30 36 38 36 36 36 34 30 25 22 19 17 13 9 7 6 8 10 12 12 12
3 6 10 10 8 9 18 15 20 15 12 9 8 12 18 20 17 21 23 24 27 27 34 34 33 32 30 29 31 36 40 37 36 38 34 29 25 23 21 17 13 9 7 7 9 11 12 14 13
12 4 3 4 6 8 2 11 21 6 6 10 19 22 18 20 21 19 18 22 23 27 33 35 35 33 32 31 32 36 36 33 36 34 32 27 25 24 22 16 12 9 7 8 9 11 13 14 14
15 13 6 6 6 7 2 12 8 10 12 15 10 16 14 19 20 23 21 20 23 28 31 34 36 35 33 33 34 34 36 33 36 32 29 25 25 25 21 15 12 9 8 8 10 12 13 14 15
6 10 14 15 22 14 15 23 26 26 24 17 16 8 11 19 20 17 20 19 20 25 32 36 36 34 33 33 34 34 37 36 37 33 29 28 27 24 19 14 11 9 8 9 10 12 14 14 15
13 1 5 6 6 12 14 17 14 13 11 8 9 4 12 16 22 15 15 16 20 23 30 33 32 32 33 33 36 35 34 35 33 32 29 26 26 21 17 13 10 9 9 10 11 13 14 14 17
9 7 7 8 10 8 17 14 8 9 12 16 4 7 9 16 20 20 9 10 15 20 26 30 30 31 33 34 35 36 35 34 35 31 29 27 23 19 15 11 9 9 9 10 12 13 15 16 19
17 13 20 9 11 8 12 18 7 5 2 4 6 7 8 12 16 19 5 8 14 21 25 28 31 32 33 35 36 34 32 33 31 30 28 24 20 17 13 10 9 8 9 11 12 14 16 18 20
Wind_Direction
293 311 329 315 243 239 240 222 268 250 216 246 298 249 293 321 244 340 180 164 159 162 162 165 168 176 167 153 154 146 119 102 119 123 146 168 200 214 175 227 49 85 171 202 202 202 196 193 228
286 314 320 252 250 235 225 218 217 212 311 300 272 241 246 237 272 70 145 165 159 162 162 167 173 181 181 170 163 148 127 130 133 142 154 177 174 138 118 86 67 63 60 104 173 194 213 228 247
280 290 252 237 239 238 253 202 182 325 319 238 250 242 273 87 161 139 178 171 162 164 162 177 174 187 194 183 174 157 133 146 148 164 145 128 121 108 94 67 63 70 78 95 113 131 137 157 189
205 222 216 237 232 237 247 188 140 304 169 352 321 245 250 221 111 161 208 172 173 168 165 181 178 191 189 187 180 167 148 148 174 182 155 133 130 110 79 55 46 56 78 88 97 101 100 91 76
196 215 235 236 242 243 234 249 257 280 298 309 313 118 249 208 184 182 173 179 175 173 171 177 180 191 189 183 177 168 152 148 158 181 161 145 147 201 194 72 37 54 77 81 84 84 75 65 61
198 230 225 232 234 221 247 250 257 260 269 287 255 261 255 193 175 198 180 174 184 181 177 176 181 193 197 190 178 173 156 148 157 153 149 153 155 188 186 183 241 113 91 86 82 81 80 77 65
228 218 232 242 244 242 238 236 245 262 259 250 263 244 119 103 187 179 176 178 176 180 187 183 185 198 207 203 188 177 160 147 164 166 164 165 172 157 160 182 211 200 168 108 97 84 77 37 5
221 238 234 230 236 243 202 209 239 241 247 234 204 224 162 26 195 180 183 181 181 183 186 187 183 195 199 199 194 185 174 161 162 173 180 182 181 177 169 187 212 196 149 124 118 73 352 346 328
191 227 227 227 234 226 213 216 214 225 233 205 193 239 299 306 208 189 189 190 188 191 193 192 187 194 194 198 199 191 187 185 174 181 189 187 189 192 191 202 199 184 178 184 244 332 340 327 320
209 229 235 241 245 230 211 235 221 229 214 227 217 209 335 303 211 204 203 202 198 202 203 202 195 197 196 199 201 196 196 197 190 187 189 191 196 197 196 196 196 198 218 260 319 328 320 309 315
208 233 232 231 237 233 242 242 240 244 242 235 229 231 265 254 272 231 227 219 218 208 206 210 211 206 202 206 199 198 196 192 196 198 200 192 189 190 187 194 199 213 244 297 299 294 294 307 310
227 238 242 243 229 252 246 261 246 241 246 255 252 258 270 262 258 257 241 232 225 215 213 214 216 219 215 206 204 205 199 198 197 199 193 182 179 187 186 186 208 232 242 271 287 289 300 305 309
232 247 246 250 249 255 264 255 259 264 254 254 258 260 259 262 259 256 248 233 227 229 223 223 221 220 221 219 208 205 205 200 200 197 193 187 181 178 189 216 217 232 253 269 287 294 300 302 307
240 256 263 260 256 262 260 262 256 254 257 257 254 254 254 252 252 250 245 244 236 233 229 230 237 232 228 225 222 208 203 202 198 196 195 189 187 195 213 218 225 250 259 274 288 292 299 307 311
261 278 268 257 252 261 262 261 243 255 255 254 253 250 250 248 244 246 245 243 238 240 239 232 236 236 232 228 217 209 204 199 198 194 190 194 204 212 217 228 247 253 263 283 287 298 312 316 316
258 264 274 117 193 229 208 263 254 270 242 251 252 255 252 248 247 244 246 248 247 247 244 245 246 249 239 226 216 208 202 198 195 191 197 202 207 207 218 232 250 259 269 276 295 314 319 321 320
220 259 240 280 247 268 215 276 259 239 245 260 261 259 256 255 250 246 241 243 245 244 242 239 247 259 250 229 215 208 201 196 200 202 202 209 207 212 218 226 247 260 256 278 310 319 324 326 327
248 231 244 253 193 267 269 264 266 268 273 271 266 263 259 256 254 250 244 243 243 243 243 241 246 254 249 224 206 201 198 201 201 204 207 208 207 211 215 215 235 242 248 293 317 326 331 334 337
273 267 265 270 277 299 273 273 275 273 268 265 262 260 260 258 256 254 247 244 241 238 239 239 242 243 242 217 207 206 209 203 203 203 207 207 209 208 210 215 222 222 247 291 320 332 337 341 344
253 265 269 276 273 280 292 286 285 271 261 258 257 257 256 255 254 249 245 242 239 235 234 233 237 238 236 219 211 207 209 206 204 201 202 205 205 206 201 210 207 218 241 291 323 338 343 342 347
238 249 264 270 292 289 286 285 261 279 259 255 252 254 256 252 249 247 242 237 235 235 230 228 231 235 225 213 200 207 208 203 197 196 198 198 198 197 196 199 209 217 247 292 325 339 344 340 341
256 258 259 268 284 272 79 290 285 284 282 247 252 249 252 254 249 247 242 236 231 229 231 228 228 227 215 212 215 217 212 204 197 195 196 197 194 190 197 202 211 225 253 293 322 332 336 340 335
238 221 236 261 266 283 250 252 278 200 264 254 262 269 266 265 256 245 243 235 228 225 229 227 223 215 213 214 214 210 208 198 194 192 195 197 190 190 197 206 215 232 257 294 316 326 331 333 332
63 228 249 257 256 247 245 209 273 267 268 249 243 278 292 285 274 258 246 241 227 221 223 220 216 212 210 208 209 208 208 205 195 190 192 194 191 194 200 206 218 237 264 294 312 321 326 329 326
218 171 253 235 208 249 324 210 247 273 215 236 280 296 304 297 282 270 254 235 226 214 217 214 210 207 205 203 203 205 210 209 196 195 192 193 195 202 203 207 221 241 266 292 308 318 324 323 321
205 212 229 258 239 294 153 247 242 251 261 257 275 295 318 327 297 267 252 234 225 216 214 211 206 205 201 199 199 203 202 204 195 190 188 195 207 204 203 210 226 245 270 292 308 318 319 318 317
175 215 233 274 271 273 253 262 279 268 257 250 260 282 311 336 327 281 246 233 224 210 207 209 203 200 195 194 195 200 202 196 192 189 190 196 203 200 203 215 231 250 275 295 310 315 316 316 315
221 277 196 203 256 249 251 255 254 270 306 236 213 280 319 337 352 324 250 231 214 205 202 199 197 194 188 189 192 197 199 195 192 189 194 199 197 198 207 220 236 258 280 300 309 314 316 315 312
195 220 217 274 244 259 269 263 306 304 273 235 247 307 323 329 354 347 277 227 200 189 185 187 185 185 188 189 189 192 194 190 192 190 189 196 194 200 211 223 242 264 289 303 311 315 314 313 308
228 232 223 234 238 240 253 261 223 247 239 214 297 317 341 334 345 357 315 207 187 178 175 177 180 183 186 187 186 190 187 187 187 188 188 189 196 203 213 229 249 276 297 307 311 312 312 309 310